Cook, MN

12:47 AM CDT on July 28, 2017 (GMT -0500)
Cook Municipal

Weather History for KCQM - May, 2014

Change the Weather History Date:

Sunday, May 4, 2014

  Actual Average Record
Temperature  
Mean Temperature 38 °F -  
Max Temperature 51 °F 58 °F 80 °F (1999)
Min Temperature 26 °F 33 °F 24 °F (2005)
Degree Days  
Heating Degree Days 26    
Moisture  
Dew Point 27 °F    
Average Humidity 66    
Maximum Humidity 100    
Minimum Humidity 37    
Precipitation  
Precipitation 0.00 in - - ()
Sea Level Pressure  
Sea Level Pressure 30.04 in    
Wind  
Wind Speed 5 mph (NW)    
Max Wind Speed 9 mph    
Max Gust Speed 16 mph    
Visibility 10 miles    
Events      
Averages and records for this station are not official NWS values.
T = Trace of Precipitation, MM = Missing Value Source: NWS Daily Summary

Daily Weather History Graph

Daily Weather History Graph

Search for Another Location

Airport or City:

Trip Planner

Search our weather history database for the weather conditions in past years. The results will help you decide how hot, cold, wet, or windy it might be!

Date:

Astronomy

May. 04, 2014 Rise Set
Actual Time 5:48 AM CDT 8:27 PM CDT
Civil Twilight 5:13 AM CDT 9:02 PM CDT
Nautical Twilight 4:28 AM CDT 9:47 PM CDT
Astronomical Twilight 3:37 AM CDT 10:40 PM CDT
Moon 10:11 AM CDT (5/4) 12:35 AM CDT (5/4)
Length of Visible Light 15h 49m
Length of Day
14h 39m
Waxing Crescent, 28% of the Moon is Illuminated
May 4
Waxing Crescent
May 6
First Quarter
May 14
Full
May 21
Last Quarter
May 28
New

Hourly Weather History & Observations

Time (CDT) Temp. Windchill Dew Point Humidity Pressure Visibility Wind Dir Wind Speed Gust Speed Precip Events Conditions
12:14 AM 30.2 °F 22.6 °F 28.4 °F 93% 29.93 in 10.0 mi West 8.1 mph - N/A   Clear
12:35 AM 30.2 °F 23.4 °F 28.4 °F 93% 29.94 in 10.0 mi West 6.9 mph - N/A   Clear
12:55 AM 30.2 °F 22.6 °F 28.4 °F 93% 29.95 in 10.0 mi West 8.1 mph - N/A   Clear
1:14 AM 30.2 °F 22.6 °F 28.4 °F 93% 29.95 in 10.0 mi West 8.1 mph - N/A   Clear
1:35 AM 30.2 °F 22.6 °F 28.4 °F 93% 29.96 in 10.0 mi West 8.1 mph - N/A   Clear
1:54 AM 28.4 °F 21.2 °F 28.4 °F 100% 29.96 in 10.0 mi West 6.9 mph - N/A   Clear
2:15 AM 28.4 °F 21.2 °F 28.4 °F 100% 29.97 in 10.0 mi West 6.9 mph - N/A   Clear
2:34 AM 28.4 °F 21.2 °F 28.4 °F 100% 29.97 in 10.0 mi West 6.9 mph - N/A   Clear
2:54 AM 28.4 °F 21.2 °F 28.4 °F 100% 29.98 in 10.0 mi West 6.9 mph - N/A   Clear
3:15 AM 28.4 °F 19.7 °F 28.4 °F 100% 30.00 in 10.0 mi West 9.2 mph - N/A   Clear
3:34 AM 28.4 °F 20.4 °F 26.6 °F 93% 30.01 in 10.0 mi West 8.1 mph - N/A   Clear
3:55 AM 28.4 °F 22.2 °F 26.6 °F 93% 30.01 in 10.0 mi West 5.8 mph - N/A   Clear
4:15 AM 28.4 °F 23.3 °F 26.6 °F 93% 30.02 in 10.0 mi West 4.6 mph - N/A   Clear
4:34 AM 26.6 °F 21.2 °F 26.6 °F 100% 30.02 in 10.0 mi West 4.6 mph - N/A   Clear
4:55 AM 26.6 °F 21.2 °F 24.8 °F 93% 30.02 in 10.0 mi West 4.6 mph - N/A   Clear
5:15 AM 26.6 °F 22.6 °F 26.6 °F 100% 30.02 in 10.0 mi WNW 3.5 mph - N/A   Clear
5:34 AM 26.6 °F - 26.6 °F 100% 30.03 in 10.0 mi Calm Calm - N/A   Clear
5:55 AM 26.6 °F - 26.6 °F 100% 30.03 in 10.0 mi Calm Calm - N/A   Clear
6:15 AM 26.6 °F - 24.8 °F 93% 30.04 in 10.0 mi Calm Calm - N/A   Clear
6:34 AM 26.6 °F - 24.8 °F 93% 30.04 in 10.0 mi Calm Calm - N/A   Clear
6:55 AM 28.4 °F 24.6 °F 26.6 °F 93% 30.04 in 10.0 mi West 3.5 mph - N/A   Clear
7:15 AM 28.4 °F - 26.6 °F 93% 30.05 in 10.0 mi Calm Calm - N/A   Clear
7:35 AM 30.2 °F - 26.6 °F 86% 30.05 in 10.0 mi Calm Calm - N/A   Clear
7:55 AM 32.0 °F 25.6 °F 28.4 °F 87% 30.06 in 10.0 mi West 6.9 mph - N/A   Clear
8:15 AM 32.0 °F 28.7 °F 28.4 °F 87% 30.07 in 10.0 mi NW 3.5 mph - N/A   Scattered Clouds
8:35 AM 33.8 °F - 28.4 °F 81% 30.07 in 10.0 mi Calm Calm - N/A   Clear
8:54 AM 35.6 °F 30.7 °F 28.4 °F 75% 30.07 in 10.0 mi NNW 5.8 mph - N/A   Scattered Clouds
9:15 AM 37.4 °F 32.1 °F 28.4 °F 70% 30.07 in 10.0 mi WNW 6.9 mph - N/A   Mostly Cloudy
9:35 AM 37.4 °F 33.8 °F 28.4 °F 70% 30.08 in 10.0 mi NW 4.6 mph - N/A   Mostly Cloudy
9:54 AM 37.4 °F 33.8 °F 28.4 °F 70% 30.09 in 10.0 mi North 4.6 mph - N/A   Mostly Cloudy
10:15 AM 39.2 °F 37.0 °F 26.6 °F 61% 30.09 in 10.0 mi WNW 3.5 mph - N/A   Mostly Cloudy
10:35 AM 39.2 °F - 28.4 °F 65% 30.09 in 10.0 mi Calm Calm - N/A   Mostly Cloudy
10:54 AM 39.2 °F - 26.6 °F 61% 30.09 in 10.0 mi Calm Calm - N/A   Mostly Cloudy
11:15 AM 39.2 °F - 26.6 °F 61% 30.09 in 10.0 mi Calm Calm - N/A   Overcast
11:35 AM 42.8 °F - 26.6 °F 53% 30.09 in 10.0 mi Calm Calm - N/A   Mostly Cloudy
11:54 AM 41.0 °F - 26.6 °F 57% 30.09 in 10.0 mi Calm Calm - N/A   Mostly Cloudy
12:15 PM 42.8 °F 41.1 °F 26.6 °F 53% 30.09 in 10.0 mi NNW 3.5 mph - N/A   Mostly Cloudy
12:35 PM 42.8 °F 38.6 °F 26.6 °F 53% 30.08 in 10.0 mi NW 6.9 mph - N/A   Mostly Cloudy
12:54 PM 44.6 °F - 26.6 °F 49% 30.08 in 10.0 mi Calm Calm - N/A   Mostly Cloudy
1:15 PM 46.4 °F 43.5 °F 26.6 °F 46% 30.08 in 10.0 mi SW 5.8 mph - N/A   Mostly Cloudy
1:35 PM 46.4 °F 44.3 °F 28.4 °F 50% 30.07 in 10.0 mi West 4.6 mph - N/A   Mostly Cloudy
1:54 PM 46.4 °F - 26.6 °F 46% 30.08 in 10.0 mi Calm Calm - N/A   Mostly Cloudy
2:14 PM 48.2 °F - 28.4 °F 46% 30.07 in 10.0 mi WNW 3.5 mph 16.1 mph N/A   Mostly Cloudy
2:34 PM 48.2 °F - 28.4 °F 46% 30.07 in 10.0 mi WNW 8.1 mph - N/A   Scattered Clouds
2:52 PM 48.2 °F - 26.6 °F 43% 30.07 in 10.0 mi Calm Calm - N/A   Clear
3:14 PM 50.0 °F - 26.6 °F 40% 30.06 in 10.0 mi West 3.5 mph - N/A   Mostly Cloudy
3:34 PM 50.0 °F - 26.6 °F 40% 30.05 in 10.0 mi WSW 5.8 mph - N/A   Mostly Cloudy
3:55 PM 50.0 °F - 26.6 °F 40% 30.05 in 10.0 mi WSW 4.6 mph - N/A   Scattered Clouds
4:10 PM 50.0 °F - 24.8 °F 37% 30.04 in 10.0 mi SSE 3.5 mph - N/A   Scattered Clouds
4:34 PM 50.0 °F - 24.8 °F 37% 30.04 in 10.0 mi NNE 4.6 mph - N/A   Clear
4:39 PM 51.8 °F - 26.6 °F 38% 30.04 in 10.0 mi NNW 4.6 mph - N/A   Clear
4:59 PM 51.8 °F - 26.6 °F 38% 30.04 in 10.0 mi East 6.9 mph - N/A   Clear
5:34 PM 48.2 °F - 24.8 °F 40% 30.04 in 10.0 mi East 4.6 mph - N/A   Scattered Clouds
5:55 PM 50.0 °F - 24.8 °F 37% 30.03 in 10.0 mi NNE 4.6 mph - N/A   Scattered Clouds
6:14 PM 50.0 °F - 24.8 °F 37% 30.03 in 10.0 mi North 6.9 mph - N/A   Clear
6:35 PM 50.0 °F - 24.8 °F 37% 30.03 in 10.0 mi Calm Calm - N/A   Clear
6:54 PM 50.0 °F - 24.8 °F 37% 30.03 in 10.0 mi NE 4.6 mph - N/A   Clear
6:55 PM 50.0 °F - 24.8 °F 37% 30.03 in 10.0 mi NE 4.6 mph - N/A   Clear
7:41 PM 48.2 °F - 26.6 °F 43% 30.02 in 10.0 mi ENE 5.8 mph - N/A   Clear
7:42 PM 48.2 °F - 26.6 °F 43% 30.02 in 10.0 mi ENE 5.8 mph - N/A   Clear
7:55 PM 46.4 °F 45.2 °F 26.6 °F 46% 30.03 in 10.0 mi ENE 3.5 mph - N/A   Clear
8:14 PM 44.6 °F 43.1 °F 26.6 °F 49% 30.03 in 10.0 mi East 3.5 mph - N/A   Clear
8:35 PM 44.6 °F 43.1 °F 26.6 °F 49% 30.03 in 10.0 mi ENE 3.5 mph - N/A   Clear
8:55 PM 42.8 °F - 26.6 °F 53% 30.04 in 10.0 mi Calm Calm - N/A   Scattered Clouds
9:14 PM 41.0 °F - 26.6 °F 57% 30.04 in 10.0 mi Calm Calm - N/A   Scattered Clouds
9:35 PM 41.0 °F - 26.6 °F 57% 30.05 in 10.0 mi Calm Calm - N/A   Scattered Clouds
10:16 PM 39.2 °F - 26.6 °F 61% 30.07 in 10.0 mi Calm Calm - N/A   Clear
10:21 PM 39.2 °F - 26.6 °F 61% 30.07 in 10.0 mi ENE 2.3 mph - N/A   Clear
10:33 PM 39.2 °F - 26.6 °F 61% 30.07 in 10.0 mi Calm Calm - N/A   Clear
11:01 PM 39.2 °F - 26.6 °F 61% 30.07 in 10.0 mi East 2.3 mph - N/A   Scattered Clouds
11:21 PM 39.2 °F - 26.6 °F 61% 30.07 in 10.0 mi East 2.3 mph - N/A   Scattered Clouds
11:23 PM 39.2 °F - 26.6 °F 61% 30.07 in 10.0 mi Calm Calm - N/A   Scattered Clouds
11:27 PM 39.2 °F - 26.6 °F 61% 30.07 in 10.0 mi Calm Calm - N/A   Mostly Cloudy